STARLINK-5656

Satellite information

Favourite Embed

Satellite Type and Status

PAYLOADIN ORBIT

Key statistics

Satellite STARLINK-5656 at a glance.

Uptime

1011

Days in orbit

Revolutions

≈ 15.0

Per day

Orbit

LEO

Low Earth Orbit

Inclination

43.0

Latest

Satellite identification and parameters

Extended collection of information and parameters for STARLINK-5656.

Object identification

Identified? True

Debris? False

Object name: STARLINK-5656

International designator: 2023-015C

Object number (NORAD): 55451

Object ID (CCSDS): 55451

Country: UNITED STATES OF AMERICA (US)

Current information (Y/N): Y

RCS size: LARGE

Orbital parameters

Period: 95.834 minutes

Inclination: 43.0064 deg

SMA: 6937.026 km

Apoapsis: 559.395 km

Periapsis: 558.387 km

RAAN: 264.3836 deg

Eccentricy: 0.0000727

Argument of periapsis: 298.5624 deg

Mean anomaly: 61.5145 deg

Mean motion: 15.02597931 rev/day

Mean motion (dot): -0.00012661 rev/day2

B* drag term: -0.00092239 1/REarth

Two-line elements (TLE)

Creation date: Nov. 8, 2025, 11:06 p.m.

Reference frame: TEME

Reference center: EARTH

Epoch: Nov. 8, 2025, 2:16 p.m. UTC

TLE line 0: 0 STARLINK-5656

TLE line 1: 1 55451U 23015C 25312.59496536 -.00012661 00000-0 -92239-3 0 9997

TLE line 2: 2 55451 43.0064 264.3836 0000727 298.5624 61.5145 15.02597931152533

Live tracking on map

Real-time ground track for satellite STARLINK-5656.

In-orbit conjunctions

There are no conjunctions computed for STARLINK-5656, at the moment. Check back to stay up to date, as we update our databases every day.

Go to all conjunctions

Associated space launch

A batch of 53 satellites for the Starlink mega-constellation - SpaceX's project for space-based Internet communication system.

STARLINK-5656 was lifted into orbit during the mission ‘Falcon 9 Block 5 | Starlink Group 5-3’, on board a Falcon 9 space rocket.

The launch took place on Feb. 2, 2023, 7:58 a.m. from Launch Complex 39A.

For more information about the launch, click the button.

Launch to space Falcon 9 Block 5 | Starlink Group 5-3
Falcon 9 Block 5 | Starlink Group 5-3

Agency: N/A

Status: Launch Successful

Launch date: Feb. 2, 2023, 7:58 a.m. UTC

Rocket: Falcon 9

Launch pad: Launch Complex 39A

Location: Kennedy Space Center, FL, USA

...

Latest news about this satellite

News about space launch
SpaceX Starlink Gen2 mission marks Falcon 9 rocket’s 200th successful launch

A day and a half after its 200th launch overall, SpaceX’s Falcon 9 rocket has successfully launched for the 200th time. Falcon...

News about space launch
SpaceX conducts cross-country Starlink doubleheader

SpaceX ended January with and began February with two Starlink missions. These launches occurred two days apart from separate launch sites.

News about space launch
Watch live: SpaceX set to launch 53 more Starlink internet satellites

SpaceX’s launch team in Florida is counting down to an overnight blastoff early Thursday, with a Falcon 9 rocket set to loft 53 more Starlink internet satellites into orbit. Liftoff from Kennedy Space Center is scheduled for 2:43 a.m. EST (0743 GMT).


Newsletter sign-up

Weekly statistics, charts and insights to help you stay on top of the space industry.